Location: Courcelles
(49.2596°N, 1.7419°E)
Time: 23:44:05
(UTC+00:00)

Helios 1A Rocket - Pass Details

Date: 17 November 2025
Orbit: 440 x 452 km, 98.3° (Epoch: 05 December)

Event Time Altitude Azimuth Distance (km) Brightness Sun altitude
Exits shadow 17:49:27 26° 128° (SE) 922 3.6 -16.2°
Drops below altitude 10° 17:51:34 10° 161° (SSE) 1,572 5.1 -16.6°
Sets 17:53:45 0° 173° (S) 2,442 6.2 -16.9°
